Location: Baia Mare
(47.6567°N, 23.5850°E)
Time: 08:29:46
(UTC+03:00)

Envisat - Pass Details

Date: 26 January 2022
Orbit: 764 x 765 km, 98.2° (Epoch: 22 May)

Event Time Altitude Azimuth Distance (km) Brightness Sun altitude
Rises 06:15:52 0° 7° (N) 3,242 6.2 -17.4°
Reaches altitude 10° 06:18:19 10° 359° (N) 2,311 5.4 -17.0°
Maximum altitude 06:22:57 37° 294° (WNW) 1,180 3.5 -16.2°
Drops below altitude 10° 06:27:35 10° 228° (SW) 2,298 5.1 -15.5°
Sets 06:30:01 0° 220° (SW) 3,220 6.0 -15.1°
